Ord, NE

10:50 PM CST on February 08, 2016 (GMT -0600)
Sharp

Weather History for KODX - July, 2012

Change the Weather History Date:

Friday, July 27, 2012

  Actual Average Record
Temperature  
Mean Temperature 73 °F 75 °F  
Max Temperature 90 °F 88 °F 98 °F (2002)
Min Temperature 55 °F 62 °F 45 °F (2005)
Degree Days  
Heating Degree Days 0 0  
Month to date heating degree days 0 0  
Since 1 June heating degree days 16 37  
Since 1 July heating degree days 0 0  
Cooling Degree Days 8 10  
Month to date cooling degree days 433 257  
Year to date cooling degree days 808 460  
Since 1 June cooling degree days 721 419  
Growing Degree Days 22 (Base 50)    
Moisture  
Dew Point 55 °F    
Average Humidity 61    
Maximum Humidity 93    
Minimum Humidity 29    
Precipitation  
Precipitation 0.00 in 0.12 in 2.25 in (1922)
Month to date precipitation 0.15 2.32  
Year to date precipitation 10.13 15.10  
Sea Level Pressure  
Sea Level Pressure 30.05 in    
Wind  
Wind Speed 6 mph (ENE)    
Max Wind Speed 16 mph    
Max Gust Speed 21 mph    
Visibility 10 miles    
Events      
T = Trace of Precipitation, MM = Missing Value Source: NWS Daily Summary

Daily Weather History Graph

Daily Weather History Graph

Search for Another Location

Airport or City:

Trip Planner

Search our weather history database for the weather conditions in past years. The results will help you decide how hot, cold, wet, or windy it might be!

Date:

Astronomy

Jul. 27, 2012 Rise Set
Actual Time 6:25 AM CDT 8:58 PM CDT
Civil Twilight 5:54 AM CDT 9:29 PM CDT
Nautical Twilight 5:14 AM CDT 10:09 PM CDT
Astronomical Twilight 4:29 AM CDT 10:53 PM CDT
Moon 3:57 PM CDT (7/27) 12:59 AM CDT (7/27)
Length of Visible Light 15h 35m
Length of Day
14h 32m
Waxing Gibbous, 65% of the Moon is Illuminated
Jul 27
Waxing Gibbous
Aug 1
Full
Aug 9
Last Quarter
Aug 17
New
Aug 24
First Quarter

Hourly Weather History & Observations

Time (CDT) Temp. Heat Index Dew Point Humidity Pressure Visibility Wind Dir Wind Speed Gust Speed Precip Events Conditions
12:53 AM 69.1 °F - 55.0 °F 61% 30.00 in 10.0 mi Calm Calm - N/A   Clear
1:53 AM 64.9 °F - 55.0 °F 70% 30.03 in 10.0 mi North 5.8 mph - N/A   Clear
2:53 AM 64.0 °F - 55.0 °F 73% 30.04 in 10.0 mi North 3.5 mph - N/A   Clear
3:53 AM 61.0 °F - 55.0 °F 81% 30.04 in 10.0 mi NNW 3.5 mph - N/A   Clear
4:53 AM 57.0 °F - 53.1 °F 87% 30.06 in 10.0 mi Calm Calm - N/A   Clear
5:53 AM 55.9 °F - 53.1 °F 90% 30.07 in 10.0 mi NW 5.8 mph - N/A   Clear
6:53 AM 57.0 °F - 54.0 °F 89% 30.07 in 10.0 mi Calm Calm - N/A   Clear
7:53 AM 61.0 °F - 55.0 °F 81% 30.09 in 10.0 mi NW 4.6 mph - N/A   Clear
8:53 AM 69.1 °F - 55.9 °F 63% 30.08 in 10.0 mi NNE 8.1 mph - N/A   Clear
9:53 AM 73.0 °F - 55.9 °F 55% 30.10 in 10.0 mi NNE 6.9 mph - N/A   Clear
10:53 AM 77.0 °F - 55.9 °F 48% 30.09 in 10.0 mi Variable 6.9 mph - N/A   Clear
11:53 AM 81.0 °F 80.5 °F 54.0 °F 39% 30.08 in 10.0 mi North 6.9 mph - N/A   Clear
12:53 PM 84.0 °F 82.5 °F 53.1 °F 34% 30.08 in 10.0 mi NNE 5.8 mph - N/A   Clear
1:53 PM 84.9 °F - 52.0 °F 32% 30.07 in 10.0 mi Calm Calm - N/A   Clear
2:53 PM 86.0 °F - 52.0 °F 31% 30.06 in 10.0 mi SSW 9.2 mph - N/A   Clear
3:53 PM 89.1 °F 86.7 °F 53.1 °F 29% 30.04 in 10.0 mi Variable 5.8 mph - N/A   Clear
4:53 PM 89.6 °F 87.3 °F 53.6 °F 29% 30.06 in 10.0 mi SE 5.8 mph - N/A   Clear
5:53 PM 89.1 °F 87.3 °F 55.9 °F 32% 30.01 in 10.0 mi East 10.4 mph - N/A   Clear
6:53 PM 88.0 °F 85.9 °F 54.0 °F 31% 30.00 in 10.0 mi SSE 11.5 mph - N/A   Clear
7:53 PM 86.0 °F 84.5 °F 55.0 °F 35% 30.00 in 10.0 mi SSE 12.7 mph 19.6 mph N/A   Clear
8:53 PM 82.0 °F 82.0 °F 57.9 °F 44% 30.00 in 10.0 mi SE 8.1 mph - N/A   Clear
9:53 PM 77.0 °F - 59.0 °F 54% 30.02 in 10.0 mi ESE 4.6 mph - N/A   Clear
10:53 PM 73.9 °F - 59.0 °F 59% 30.03 in 10.0 mi SE 5.8 mph - N/A   Clear
11:53 PM 72.0 °F - 60.1 °F 66% 30.03 in 10.0 mi SE 6.9 mph - N/A   Clear